DLH335 LIPZ-LGZA

Flight info

Callsign DLH335
Flight time N/A
Altitude 37000
Route ROSKA T132 ROTAR DCT AIOSA DCT DAMIC DCT LATAN UM872 ASTUS
Aircraft A320/M-SDE3FGHIRWY/LB1

Departure

Time N/A
Airport Venice Marco Polo Airport (LIPZ)

Arrival

Time 2026-04-30 18:20
Airport Zakynthos International Airport Dionysios Solomos (LGZA)
Time Latitude Longitude Altitude Speed Heading
2026-04-30 18:07 37.97009 20.28582 14879 ft 473 kts 128°
2026-04-30 18:08 37.92010 20.38339 14276 ft 429 kts 117°
2026-04-30 18:09 37.87384 20.51936 11926 ft 412 kts 114°
2026-04-30 18:10 37.81292 20.62712 10787 ft 352 kts 162°
2026-04-30 18:11 37.72516 20.63301 10224 ft 300 kts 179°
2026-04-30 18:11 37.66464 20.65336 9269 ft 302 kts 160°
2026-04-30 18:12 37.61162 20.69681 8034 ft 306 kts 140°
2026-04-30 18:13 37.58348 20.73650 7345 ft 302 kts 127°
2026-04-30 18:13 37.55772 20.79740 6083 ft 286 kts 110°
2026-04-30 18:14 37.54711 20.85126 5249 ft 259 kts 96°
2026-04-30 18:15 37.54683 20.91624 4256 ft 239 kts 80°
2026-04-30 18:15 37.57523 20.94879 3395 ft 197 kts 345°
2026-04-30 18:16 37.60002 20.93933 2893 ft 176 kts 340°
2026-04-30 18:16 37.62109 20.93087 2455 ft 143 kts 340°
2026-04-30 18:17 37.63023 20.92732 2260 ft 134 kts 340°
2026-04-30 18:17 37.63900 20.92399 2091 ft 130 kts 340°
2026-04-30 18:17 37.65617 20.91778 1760 ft 128 kts 342°
2026-04-30 18:18 37.66479 20.91471 1590 ft 129 kts 342°
2026-04-30 18:18 37.67342 20.91164 1417 ft 127 kts 344°
2026-04-30 18:18 37.68186 20.90864 1247 ft 125 kts 342°
2026-04-30 18:18 37.69021 20.90570 1084 ft 125 kts 343°
2026-04-30 18:19 37.69862 20.90276 926 ft 126 kts 343°
2026-04-30 18:19 37.70714 20.89983 743 ft 129 kts 343°
2026-04-30 18:19 37.71594 20.89728 556 ft 131 kts 344°
2026-04-30 18:19 37.72480 20.89420 418 ft 131 kts 342°
2026-04-30 18:20 37.73342 20.89078 221 ft 128 kts 343°
2026-04-30 18:20 37.74195 20.88760 59 ft 128 kts 343°
2026-04-30 18:20 37.74998 20.88457 18 ft 103 kts 344°
2026-04-30 18:20 37.75478 20.88278 21 ft 18 kts 349°
2026-04-30 18:21 37.75486 20.88281 21 ft 2 kts 25°
2026-04-30 18:21 37.75479 20.88341 21 ft 8 kts 108°
2026-04-30 18:21 37.75443 20.88411 20 ft 14 kts 149°
2026-04-30 18:21 37.75446 20.88494 22 ft 6 kts 72°
2026-04-30 18:22 37.75448 20.88504 20 ft 1 kts 73°
2026-04-30 18:22 37.75449 20.88510 20 ft 0 kts 73°